Location: Lac de la Montange Noire
(46.1952°N, 74.2701°W)
Time: 07:18:37
(UTC-04:00)

Iridium 42 - Visible Passes

Search period start: 25 July 2014 00:00
Search period end: 04 August 2014 00:00
Orbit: 776 x 779 km, 86.4° (Epoch: 24 July)

Date Brightness Start Highest point End Pass type
(mag) Time Alt. Az. Time Alt. Az. Time Alt. Az.
25 Jul 7.0 00:22:30 10° NNW 00:26:52 28° W 00:28:49 22° WSW visible
25 Jul 6.9 22:08:26 10° NNE 22:12:33 23° ENE 22:14:57 17° ESE visible
25 Jul 6.2 23:48:32 10° NNW 23:53:32 48° W 23:55:25 33° SW visible
26 Jul 7.5 21:36:05 10° NE 21:38:37 14° ENE 21:41:09 10° E visible
26 Jul 5.5 23:14:51 10° N 23:20:05 85° W 23:22:02 40° S visible
27 Jul 8.0 00:58:20 10° NW 00:59:55 11° WNW 01:01:30 10° W visible
27 Jul 5.7 22:41:23 10° N 22:46:31 55° E 22:48:40 33° SE visible
28 Jul 7.5 00:23:04 10° NNW 00:26:47 20° WNW 00:29:08 15° WSW visible
28 Jul 6.5 22:08:10 10° NNE 22:12:49 32° ENE 22:15:18 21° ESE visible
28 Jul 6.8 23:48:52 10° NNW 23:53:32 34° W 23:55:46 24° SW visible
29 Jul 7.1 21:35:21 10° NNE 21:38:59 19° ENE 21:41:56 12° ESE visible
29 Jul 5.9 23:15:01 10° N 23:20:09 61° W 23:22:25 33° SSW visible
30 Jul 7.6 21:03:52 10° NE 21:05:00 11° ENE 21:06:08 10° E visible
30 Jul 5.5 22:41:25 10° N 22:46:40 78° E 22:49:04 33° SSE visible
31 Jul 7.9 00:23:57 10° NW 00:26:40 14° WNW 00:29:23 10° WSW visible
31 Jul 6.0 22:08:03 10° N 22:13:02 44° E 22:15:43 24° SE visible
31 Jul 7.3 23:49:18 10° NNW 23:53:29 25° W 23:56:12 17° WSW visible
01 Aug 6.7 21:34:57 10° NNE 21:39:17 26° ENE 21:42:23 15° ESE visible
01 Aug 6.5 23:15:16 10° NNW 23:20:11 43° W 23:22:52 24° SW visible
02 Aug 7.3 21:02:24 10° NE 21:05:23 15° ENE 21:08:22 10° ESE visible
02 Aug 5.6 22:41:32 10° N 22:46:45 76° W 22:49:33 28° S visible
03 Aug 5.6 22:08:01 10° N 22:13:12 62° E 22:16:14 25° SSE visible
03 Aug 7.8 23:49:57 10° NW 23:53:23 18° WNW 23:56:43 10° WSW visible
